This demonstration page uses our WeatherBlox Daily Observations layout. Learn more.

36.17497, -115.13722

Hourly Observations for April 21, 2018

Temp ( °F °C ) Dew Point ( °F °C ) Humidity (%) Winds ( mph kmh ) Pressure ( in mb ) Visibility ( mi km ) Precip ( " mm )
12:53 am 00:53 Clear 63 17.2 33 0.6 33 33 Calm 30.06 1018 10 16.09344 0 0
1:53 am 01:53 Clear 60 15.6 34 1.1 38 38 N 7 11 30.06 1018 10 16.09344 0 0
2:53 am 02:53 Clear 59 15 33 0.6 38 38 NNW 5 7 30.06 1018 10 16.09344 0 0
3:53 am 03:53 Clear 58 14.4 33 0.6 39 39 Calm 30.06 1018 10 16.09344 0 0
4:53 am 04:53 Clear 57 13.9 31 -0.6 37 37 N 3 6 30.06 1018 10 16.09344 0 0
5:53 am 05:53 Clear 58 14.4 29 -1.7 33 33 NW 3 6 30.09 1019 10 16.09344 0 0
6:53 am 06:53 Sunny 61 16.1 30 -1.1 31 31 W 8 13 30.09 1019 10 16.09344 0 0
7:53 am 07:53 Sunny 65 18.3 23 -5 20 20 N 3 6 30.12 1020 10 16.09344 0 0
8:53 am 08:53 Sunny 68 20 24 -4.4 19 19 Calm 30.12 1020 10 16.09344 0 0
9:53 am 09:53 Sunny 71 21.7 24 -4.4 17 17 N 3 6 30.12 1020 10 16.09344 0 0
10:53 am 10:53 Sunny 74 23.3 23 -5 15 15 SE 5 7 30.12 1020 10 16.09344 0 0
11:53 am 11:53 Sunny 77 25 24 -4.4 14 14 Calm 30.09 1019 10 16.09344 0 0
12:53 pm 12:53 Sunny 79 26.1 23 -5 12 12 N 5 7 30.06 1018 10 16.09344 0 0
1:53 pm 13:53 Sunny 80 26.7 22 -5.6 11 11 SSE 7 11 30.03 1017 10 16.09344 0 0
2:53 pm 14:53 Sunny 81 27.2 21 -6.1 11 11 N 5 7 30.03 1017 10 16.09344 0 0
3:53 pm 15:53 Sunny 82 27.8 21 -6.1 10 10 Calm 30 1016 10 16.09344 0 0
4:53 pm 16:53 Sunny 83 28.3 21 -6.1 10 10 Calm 29.97 1015 10 16.09344 0 0
5:53 pm 17:53 Sunny 84 28.9 21 -6.1 10 10 SE 5 7 29.94 1014 10 16.09344 0 0
6:53 pm 18:53 Sunny 82 27.8 22 -5.6 11 11 ESE 8 13 29.94 1014 10 16.09344 0 0
7:53 pm 19:53 Clear 79 26.1 23 -5 12 12 SE 5 7 29.94 1014 10 16.09344 0 0
8:53 pm 20:53 Clear 78 25.6 24 -4.4 13 13 Calm 29.97 1015 10 16.09344 0 0
9:53 pm 21:53 Clear 74 23.3 29 -1.7 19 19 WNW 5 7 29.97 1015 10 16.09344 0 0
10:53 pm 22:53 Clear 70 21.1 27 -2.8 20 20 NW 6 9 29.97 1015 10 16.09344 0 0
11:53 pm 23:53 Clear 69 20.6 28 -2.2 22 22 NNW 6 9 29.97 1015 10 16.09344 0 0

Powered by AerisWeather